This demonstration page uses our WeatherBlox Daily Observations layout. Learn more.

Left ArrowRight Arrow

34.74481, -87.66753

Hourly Observations for January 29, 2022

Temp ( °F °C ) Dew Point ( °F °C ) Humidity (%) Winds ( mph kmh ) Pressure ( in mb ) Visibility ( mi km ) Precip ( " mm )
12:53 am 00:53 Mostly Cloudy 26 -3.3 12 -11.1 55 55 NNW 12 19 30.31 1026 10 16 0.00 0.00
1:53 am 01:53 Mostly Clear 25 -3.9 12 -11.1 58 58 NW 12 19 30.32 1027 10 16 0.00 0.00
2:53 am 02:53 Clear 24 -4.4 12 -11.1 60 60 NNW 8 13 30.32 1027 10 16 0.00 0.00
3:53 am 03:53 Clear 23 -5 12 -11.1 63 63 NNW 9 15 30.32 1027 10 16 0.00 0.00
4:53 am 04:53 Clear 22 -5.6 12 -11.1 66 66 NNW 8 13 30.33 1027 10 16 0.00 0.00
5:53 am 05:53 Clear 22 -5.6 12 -11.1 66 66 NW 7 11 30.36 1028 10 16 0.00 0.00
6:53 am 06:53 Sunny 21 -6.1 12 -11.1 68 68 Calm 30.37 1028 10 16 0.00 0.00
7:53 am 07:53 Sunny 23 -5 13 -10.6 65 65 N 6 9 30.37 1028 10 16 0.00 0.00
8:53 am 08:53 Sunny 25 -3.9 14 -10 63 63 NNE 6 9 30.38 1029 10 16 0.00 0.00
9:53 am 09:53 Sunny 27 -2.8 13 -10.6 55 55 Calm 30.39 1029 10 16 0.00 0.00
10:53 am 10:53 Sunny 30 -1.1 12 -11.1 47 47 Calm 30.38 1029 10 16 0.00 0.00
11:53 am 11:53 Sunny 32 0 12 -11.1 43 43 VRB 3 6 30.34 1028 10 16 0.00 0.00
12:53 pm 12:53 Sunny 34 1.1 11 -11.7 38 38 VRB 5 7 30.31 1026 10 16 0.00 0.00
1:53 pm 13:53 Sunny 37 2.8 7 -13.9 28 28 WNW 6 9 30.27 1025 10 16 0.00 0.00
2:53 pm 14:53 Sunny 38 3.3 7 -13.9 27 27 Calm 30.24 1024 10 16 0.00 0.00
3:53 pm 15:53 Sunny 40 4.4 8 -13.3 27 27 Calm 30.22 1023 10 16 0.00 0.00
4:53 pm 16:53 Sunny 38 3.3 10 -12.2 31 31 Calm 30.20 1023 10 16 0.00 0.00
5:53 pm 17:53 Clear 32 0 11 -11.7 41 41 Calm 30.19 1022 10 16 0.00 0.00
6:53 pm 18:53 Clear 31 -0.6 16 -8.9 54 54 SSE 5 7 30.18 1022 10 16 0.00 0.00
7:53 pm 19:53 Clear 30 -1.1 12 -11.1 47 47 S 3 6 30.18 1022 10 16 0.00 0.00
8:53 pm 20:53 Clear 30 -1.1 14 -10 51 51 SSW 3 6 30.16 1021 10 16 0.00 0.00
9:53 pm 21:53 Clear 30 -1.1 10 -12.2 43 43 Calm 30.16 1021 10 16 0.00 0.00
10:53 pm 22:53 Clear 31 -0.6 11 -11.7 43 43 S 3 6 30.14 1021 10 16 0.00 0.00
11:53 pm 23:53 Clear 29 -1.7 12 -11.1 49 49 S 5 7 30.12 1020 10 16 0.00 0.00

Powered by AerisWeather